Wind_Speed
23 28 26 29 30 32 36 36 37 34 30 29 28 27 26 24 20 16 17 17 15 14
31 28 30 35 35 34 33 34 37 35 30 27 25 25 26 21 17 13 13 15 14 11
21 29 28 27 30 32 32 32 34 35 32 29 27 27 24 21 15 12 13 16 13 8
18 19 25 29 31 30 32 33 33 36 36 34 33 31 26 22 26 26 20 16 15 12
19 19 19 22 25 26 30 31 32 34 37 37 35 32 30 34 29 27 24 22 17 19
22 18 21 24 26 27 29 32 33 36 38 39 38 37 37 35 33 34 33 27 25 26
21 23 25 24 28 31 32 34 36 37 38 37 37 36 35 32 31 30 28 29 28 21
17 20 24 25 26 27 32 35 35 35 32 32 35 35 35 35 34 32 27 25 24 24
19 19 23 25 26 28 30 29 32 33 35 34 29 32 36 35 32 29 28 28 27 23
18 20 23 25 27 29 31 33 33 32 33 30 27 34 34 32 32 28 34 32 28 23
12 20 25 27 28 28 30 30 31 32 32 31 32 34 32 30 30 34 31 28 24 17
14 16 24 28 30 28 27 28 30 32 35 35 32 35 35 32 32 30 27 20 17 18
16 12 22 32 34 34 33 33 32 31 31 32 34 35 34 33 29 25 23 21 19 16
12 11 19 27 30 32 31 29 29 29 31 33 35 35 33 31 30 28 26 24 22 20
Wind_Direction
189 190 182 186 183 185 191 198 205 208 209 207 207 205 204 201 197 197 204 212 203 182
192 200 190 190 197 193 195 198 205 207 202 196 193 188 186 184 177 168 158 163 164 166
198 197 196 189 190 189 193 198 204 202 198 189 183 180 180 174 181 187 174 160 165 183
229 200 190 188 196 202 202 203 204 200 194 192 187 189 193 201 178 178 188 199 202 206
241 219 206 202 204 199 202 202 201 193 190 190 191 194 194 185 191 198 198 198 204 214
241 245 229 218 210 210 206 202 197 196 196 196 198 196 197 199 200 204 206 205 197 199
230 236 241 231 221 212 208 202 196 199 203 200 193 192 195 197 196 196 193 193 194 203
239 236 233 233 220 213 206 202 198 193 191 190 190 195 196 193 191 184 185 192 197 195
247 236 228 229 218 212 206 195 188 186 190 189 184 191 196 193 188 190 189 186 180 173
270 243 226 223 215 208 199 191 183 185 189 182 186 188 196 194 190 185 179 175 171 167
296 252 229 212 207 198 193 188 182 181 182 183 189 187 187 185 181 180 181 177 172 182
327 248 222 203 195 194 189 185 184 184 184 182 179 179 179 177 179 175 173 179 192 192
309 255 221 209 201 199 193 186 183 177 181 180 167 180 180 180 174 164 172 182 180 187
311 277 234 210 198 190 180 177 170 166 170 169 173 177 184 181 172 172 163 165 173 180
Height
701 695 703 712 716 723 728 734 741 750 756 761 765 771 777 781 786 791 793 797 801 802
691 704 703 706 713 718 724 731 737 744 751 757 763 768 774 779 783 790 792 797 801 803
699 700 701 708 711 714 720 728 734 741 747 753 760 766 771 775 779 783 792 797 801 804
706 702 701 704 709 712 718 724 731 736 742 749 755 762 766 773 779 785 792 793 798 802
712 705 704 706 707 712 716 721 727 733 739 745 750 754 760 766 774 782 787 790 794 798
707 700 702 702 704 710 716 719 724 729 734 739 744 749 755 761 768 775 779 785 790 796
697 697 698 699 705 707 709 716 720 724 729 735 740 746 751 757 765 772 778 784 789 793
693 690 695 698 705 707 708 710 715 721 728 734 737 742 748 753 760 767 773 780 785 791
689 689 693 697 698 702 706 709 712 719 724 729 735 741 747 752 758 764 771 777 783 788
688 690 690 691 695 698 703 705 707 716 721 727 735 739 744 750 756 763 769 774 779 785
685 684 685 685 691 696 699 703 705 711 718 724 731 738 742 750 756 762 768 773 779 785
681 682 680 681 684 692 698 700 703 708 714 721 731 737 741 748 756 760 767 775 779 783
680 676 676 678 680 683 688 693 699 706 715 722 729 736 741 748 754 760 766 771 777 782
674 672 675 676 677 680 686 692 698 707 713 720 726 736 742 747 751 758 763 770 776 780